Stündliche Wetter Abolcy

Heute, 25 Juni, Freitag

Zeit Temperatur Niederschläge Wind Luftdruck Luftfeuchtigkeit
00:00 +25°C° 0.2 mm 3 m/S 750 mmHg 69%
01:00 +24°C° 0.2 mm 3 m/S 750 mmHg 73%
02:00 +23°C° 0.2 mm 4 m/S 750 mmHg 76%
03:00 +22°C° 0.1 mm 3 m/S 750 mmHg 79%
04:00 +22°C° 0.1 mm 3 m/S 750 mmHg 82%
05:00 +23°C° 0.1 mm 2 m/S 749 mmHg 86%
06:00 +24°C° 0 mm 2 m/S 749 mmHg 81%
07:00 +26°C° 0 mm 3 m/S 749 mmHg 77%
08:00 +27°C° 0 mm 3 m/S 749 mmHg 73%
09:00 +29°C° 0 mm 4 m/S 749 mmHg 65%
10:00 +32°C° 0 mm 4 m/S 749 mmHg 57%
11:00 +33°C° 0 mm 5 m/S 749 mmHg 50%
12:00 +34°C° 0 mm 4 m/S 749 mmHg 47%
13:00 +35°C° 0 mm 4 m/S 749 mmHg 44%
14:00 +36°C° 0 mm 4 m/S 749 mmHg 42%
15:00 +35°C° 0 mm 4 m/S 748 mmHg 44%
16:00 +35°C° 0 mm 3 m/S 747 mmHg 47%
17:00 +35°C° 0 mm 3 m/S 747 mmHg 49%
18:00 +33°C° 0 mm 3 m/S 747 mmHg 56%
19:00 +30°C° 0 mm 3 m/S 747 mmHg 63%
20:00 +27°C° 0 mm 3 m/S 747 mmHg 70%
21:00 +26°C° 0.3 mm 3 m/S 747 mmHg 77%
22:00 +24°C° 0.3 mm 3 m/S 748 mmHg 84%
23:00 +21°C° 0.3 mm 3 m/S 748 mmHg 91%

Morgen, 26 Juni, Samstag

Zeit Temperatur Niederschläge Wind Luftdruck Luftfeuchtigkeit
00:00 +20°C° 0 mm 3 m/S 748 mmHg 91%
01:00 +20°C° 0 mm 2 m/S 747 mmHg 91%
02:00 +20°C° 0 mm 1 m/S 747 mmHg 92%
03:00 +19°C° 0 mm 2 m/S 747 mmHg 92%
04:00 +20°C° 0 mm 2 m/S 747 mmHg 92%
05:00 +20°C° 0 mm 2 m/S 747 mmHg 93%
06:00 +21°C° 0 mm 2 m/S 748 mmHg 87%
07:00 +24°C° 0 mm 2 m/S 748 mmHg 80%
08:00 +25°C° 0 mm 2 m/S 748 mmHg 74%
09:00 +26°C° 0 mm 2 m/S 748 mmHg 68%
10:00 +28°C° 0 mm 1 m/S 748 mmHg 62%
11:00 +29°C° 0 mm 1 m/S 748 mmHg 55%
12:00 +30°C° 0 mm 1 m/S 748 mmHg 54%
13:00 +30°C° 0 mm 2 m/S 748 mmHg 53%
14:00 +31°C° 0 mm 2 m/S 747 mmHg 52%
15:00 +30°C° 0.1 mm 2 m/S 747 mmHg 55%
16:00 +30°C° 0.1 mm 3 m/S 747 mmHg 58%
17:00 +30°C° 0.1 mm 4 m/S 746 mmHg 61%
18:00 +27°C° 3.7 mm 4 m/S 747 mmHg 72%
19:00 +23°C° 3.7 mm 4 m/S 747 mmHg 83%
20:00 +19°C° 3.7 mm 4 m/S 748 mmHg 94%
21:00 +19°C° 1.5 mm 3 m/S 747 mmHg 95%
22:00 +19°C° 1.5 mm 3 m/S 747 mmHg 95%
23:00 +19°C° 1.5 mm 2 m/S 747 mmHg 96%

übermorgen, 27 Juni, Sonntag

Zeit Temperatur Niederschläge Wind Luftdruck Luftfeuchtigkeit
00:00 +19°C° 0.6 mm 2 m/S 747 mmHg 96%
01:00 +20°C° 0.6 mm 1 m/S 747 mmHg 97%
02:00 +20°C° 0.6 mm 1 m/S 747 mmHg 98%
03:00 +20°C° 0.3 mm 1 m/S 746 mmHg 97%
04:00 +20°C° 0.3 mm 1 m/S 746 mmHg 97%
05:00 +19°C° 0.3 mm 2 m/S 746 mmHg 97%
06:00 +20°C° 0 mm 2 m/S 746 mmHg 93%
07:00 +21°C° 0 mm 3 m/S 747 mmHg 89%
08:00 +22°C° 0 mm 4 m/S 747 mmHg 86%
09:00 +23°C° 0.1 mm 4 m/S 747 mmHg 81%
10:00 +25°C° 0.1 mm 4 m/S 747 mmHg 76%
11:00 +26°C° 0.1 mm 4 m/S 747 mmHg 72%
12:00 +26°C° 0 mm 4 m/S 747 mmHg 68%
13:00 +27°C° 0 mm 4 m/S 747 mmHg 64%
14:00 +27°C° 0 mm 4 m/S 747 mmHg 61%
15:00 +27°C° 0.1 mm 4 m/S 747 mmHg 64%
16:00 +27°C° 0.1 mm 4 m/S 747 mmHg 67%
17:00 +26°C° 0.1 mm 5 m/S 747 mmHg 70%
18:00 +25°C° 0 mm 4 m/S 747 mmHg 75%
19:00 +22°C° 0 mm 3 m/S 747 mmHg 80%
20:00 +21°C° 0 mm 3 m/S 747 mmHg 85%
21:00 +20°C° 0 mm 3 m/S 747 mmHg 87%
22:00 +20°C° 0 mm 3 m/S 747 mmHg 89%
23:00 +19°C° 0 mm 3 m/S 747 mmHg 91%

28 Juni, Montag

Zeit Temperatur Niederschläge Wind Luftdruck Luftfeuchtigkeit
00:00 +19°C° 0 mm 3 m/S 747 mmHg 91%
01:00 +18°C° 0 mm 3 m/S 747 mmHg 91%
02:00 +18°C° 0 mm 3 m/S 747 mmHg 91%
03:00 +18°C° 0 mm 4 m/S 747 mmHg 89%
04:00 +18°C° 0 mm 4 m/S 747 mmHg 86%
05:00 +18°C° 0 mm 4 m/S 747 mmHg 83%
06:00 +19°C° 0 mm 4 m/S 747 mmHg 81%
07:00 +19°C° 0 mm 5 m/S 747 mmHg 79%
08:00 +20°C° 0 mm 5 m/S 747 mmHg 77%
09:00 +21°C° 0 mm 5 m/S 747 mmHg 73%
10:00 +22°C° 0 mm 5 m/S 748 mmHg 70%
11:00 +22°C° 0 mm 6 m/S 748 mmHg 66%
12:00 +23°C° 0 mm 6 m/S 748 mmHg 63%
13:00 +25°C° 0 mm 5 m/S 748 mmHg 60%
14:00 +26°C° 0 mm 5 m/S 748 mmHg 57%
15:00 +25°C° 0 mm 5 m/S 747 mmHg 58%
16:00 +25°C° 0 mm 5 m/S 747 mmHg 60%
17:00 +25°C° 0 mm 4 m/S 747 mmHg 61%
18:00 +23°C° 0.1 mm 4 m/S 747 mmHg 67%
19:00 +21°C° 0.1 mm 3 m/S 747 mmHg 74%
20:00 +19°C° 0.1 mm 2 m/S 747 mmHg 80%
21:00 +19°C° 0 mm 3 m/S 747 mmHg 82%
22:00 +18°C° 0 mm 3 m/S 747 mmHg 83%
23:00 +17°C° 0 mm 3 m/S 747 mmHg 85%

29 Juni, Dienstag

Zeit Temperatur Niederschläge Wind Luftdruck Luftfeuchtigkeit
00:00 +17°C° 0 mm 3 m/S 747 mmHg 86%
01:00 +17°C° 0 mm 3 m/S 747 mmHg 87%
02:00 +16°C° 0 mm 3 m/S 746 mmHg 88%
03:00 +16°C° 0 mm 3 m/S 746 mmHg 88%
04:00 +17°C° 0 mm 3 m/S 746 mmHg 87%
05:00 +17°C° 0 mm 3 m/S 746 mmHg 87%
06:00 +18°C° 0 mm 4 m/S 746 mmHg 82%
07:00 +20°C° 0 mm 4 m/S 746 mmHg 77%
08:00 +21°C° 0 mm 4 m/S 746 mmHg 72%
09:00 +22°C° 0.6 mm 4 m/S 746 mmHg 71%
10:00 +22°C° 0.6 mm 4 m/S 746 mmHg 70%
11:00 +23°C° 0.6 mm 4 m/S 746 mmHg 69%
12:00 +23°C° 0.6 mm 4 m/S 746 mmHg 68%
13:00 +24°C° 0.6 mm 3 m/S 746 mmHg 68%
14:00 +24°C° 0.6 mm 3 m/S 746 mmHg 67%
15:00 +24°C° 0.5 mm 3 m/S 746 mmHg 68%
16:00 +24°C° 0.5 mm 3 m/S 746 mmHg 69%
17:00 +24°C° 0.5 mm 3 m/S 746 mmHg 70%
18:00 +23°C° 0.4 mm 2 m/S 746 mmHg 75%
19:00 +20°C° 0.4 mm 2 m/S 746 mmHg 79%
20:00 +19°C° 0.4 mm 2 m/S 746 mmHg 83%
21:00 +19°C° 0 mm 2 m/S 746 mmHg 85%
22:00 +18°C° 0 mm 2 m/S 746 mmHg 88%
23:00 +17°C° 0 mm 3 m/S 746 mmHg 90%

30 Juni, Mittwoch

Zeit Temperatur Niederschläge Wind Luftdruck Luftfeuchtigkeit
00:00 +17°C° 0 mm 3 m/S 746 mmHg 91%
01:00 +17°C° 0 mm 3 m/S 746 mmHg 92%
02:00 +16°C° 0 mm 3 m/S 746 mmHg 93%
03:00 +16°C° 0 mm 3 m/S 746 mmHg 93%
04:00 +16°C° 0 mm 2 m/S 746 mmHg 93%
05:00 +16°C° 0 mm 2 m/S 746 mmHg 93%
06:00 +18°C° 0 mm 3 m/S 746 mmHg 86%
07:00 +20°C° 0 mm 3 m/S 746 mmHg 79%
08:00 +22°C° 0 mm 3 m/S 746 mmHg 73%
09:00 +24°C° 0 mm 3 m/S 746 mmHg 67%
10:00 +26°C° 0 mm 3 m/S 746 mmHg 60%
11:00 +27°C° 0 mm 3 m/S 746 mmHg 54%
12:00 +28°C° 0 mm 3 m/S 746 mmHg 53%
13:00 +29°C° 0 mm 3 m/S 745 mmHg 52%
14:00 +29°C° 0 mm 3 m/S 745 mmHg 50%
15:00 +28°C° 0 mm 3 m/S 745 mmHg 56%
16:00 +27°C° 0 mm 2 m/S 745 mmHg 62%
17:00 +26°C° 0 mm 2 m/S 745 mmHg 68%
18:00 +26°C° 0 mm 2 m/S 744 mmHg 69%
19:00 +25°C° 0 mm 2 m/S 744 mmHg 70%
20:00 +24°C° 0 mm 2 m/S 744 mmHg 70%
21:00 +24°C° 0 mm 2 m/S 744 mmHg 72%
22:00 +23°C° 0 mm 2 m/S 744 mmHg 73%
23:00 +21°C° 0 mm 3 m/S 743 mmHg 75%
Mehr zeigen

Wir brauchen deine Erlaubnis

Meteoprog und unser Service Anbieter werden persönliche Daten aufbewahren, so wie Cookies, Geräte Bezeichnung oder ähnliche Technologien von deinem Gerät und Prozess, so wie Persönliche Daten Inhalte und Werbungen, genauso wie social Media und den Verkehr zu analysieren.

  • Aufbewahrung und/oder Zugang zu deiner Geräte Informationen.

    Cookies, Geräte Bezeichnung oder andere Informationen, können aufbewahrt oder Zugang zu deinem Gerät erhalten, für den Grund, der oben angegeben wird.

  • Personalisierte Werbung und Inhalte, Messungen, Einblick in das Publikum und Produkt Entwicklung.

    Werbungen und Inhalte können personalisiert werden, basierend auf ein Profil. Mehr Daten können besser personalisierte Werbungen und Inhalte hinzufügen. Werbung und Inhalte können gezeigt und gemessen werden. Einblicke über das Publikum, welche die Werbung gesehen haben und den Inhalt, können abgeleitet werden. So wie Daten können genutzt werden, um es zu verbessern oder die Benutzer Erfahrung zu verbessern das System und die Software.

Wenn du “Ich stimme zu” klickst, erlaubst du uns, die Cookies zu benutzen die Geräte Bezeichnung, den Web oder ähnliche Technologien zu benutzen. Deine Settings, können in deinem Gerät bei deinem Browser geändert werden.

Für den bestimmten Zweck, berechtigten Interessen beruhen darauf, mehr als auf den Inhalt. Du kannst mehr darüber in unseren Privaten und Cookie Politik lesen.